Year,Month,Day,Hour,Minute,Value (Times are PST for temperature in C)
2021,04,18,00,00,10.90
2021,04,18,00,01,10.80
2021,04,18,00,02,10.80
2021,04,18,00,03,10.80
2021,04,18,00,04,10.80
2021,04,18,00,05,10.70
2021,04,18,00,06,10.70
2021,04,18,00,07,10.70
2021,04,18,00,08,10.70
2021,04,18,00,09,10.70
2021,04,18,00,10,10.60
2021,04,18,00,11,10.60
2021,04,18,00,12,10.60
2021,04,18,00,13,10.60
2021,04,18,00,14,10.60
2021,04,18,00,15,10.60
2021,04,18,00,16,10.60
2021,04,18,00,17,10.60
2021,04,18,00,18,10.60
2021,04,18,00,19,10.60
2021,04,18,00,20,10.60
2021,04,18,00,21,10.60
2021,04,18,00,22,10.60
2021,04,18,00,23,10.60
2021,04,18,00,24,10.60
2021,04,18,00,25,10.60
2021,04,18,00,26,10.60
2021,04,18,00,27,10.60
2021,04,18,00,28,10.60
2021,04,18,00,29,10.50
2021,04,18,00,30,10.50
2021,04,18,00,31,10.50
2021,04,18,00,32,10.40
2021,04,18,00,33,10.40
2021,04,18,00,34,10.40
2021,04,18,00,35,10.50
2021,04,18,00,36,10.50
2021,04,18,00,37,10.50
2021,04,18,00,38,10.60
2021,04,18,00,39,10.60
2021,04,18,00,40,10.60
2021,04,18,00,41,10.60
2021,04,18,00,42,10.60
2021,04,18,00,43,10.60
2021,04,18,00,44,10.60
2021,04,18,00,45,10.50
2021,04,18,00,46,10.50
2021,04,18,00,47,10.50
2021,04,18,00,48,10.50
2021,04,18,00,49,10.50
2021,04,18,00,50,10.50
2021,04,18,00,51,10.50
2021,04,18,00,52,10.40
2021,04,18,00,53,10.40
2021,04,18,00,54,10.40
2021,04,18,00,55,10.30
2021,04,18,00,56,10.30
2021,04,18,00,57,10.30
2021,04,18,00,58,10.20
2021,04,18,00,59,10.20
2021,04,18,01,00,10.20
2021,04,18,01,01,10.10
2021,04,18,01,02,10.10
2021,04,18,01,03,10.10
2021,04,18,01,04,10.10
2021,04,18,01,05,10.10
2021,04,18,01,06,10.00
2021,04,18,01,07,10.00
2021,04,18,01,08,10.00
2021,04,18,01,09,9.90
2021,04,18,01,10,9.90
2021,04,18,01,11,9.90
2021,04,18,01,12,9.80
2021,04,18,01,13,9.80
2021,04,18,01,14,9.80
2021,04,18,01,15,9.70
2021,04,18,01,16,9.70
2021,04,18,01,17,9.60
2021,04,18,01,18,9.60
2021,04,18,01,19,9.60
2021,04,18,01,20,9.50
2021,04,18,01,21,9.50
2021,04,18,01,22,9.50
2021,04,18,01,23,9.40
2021,04,18,01,24,9.40
2021,04,18,01,25,9.40
2021,04,18,01,26,9.30
2021,04,18,01,27,9.30
2021,04,18,01,28,9.30
2021,04,18,01,29,9.30
2021,04,18,01,30,9.30
2021,04,18,01,31,9.30
2021,04,18,01,32,9.30
2021,04,18,01,33,9.20
2021,04,18,01,34,9.20
2021,04,18,01,35,9.20
2021,04,18,01,36,9.20
2021,04,18,01,37,9.20
2021,04,18,01,38,9.20
2021,04,18,01,39,9.20
2021,04,18,01,40,9.20
2021,04,18,01,41,9.20
2021,04,18,01,42,9.20
2021,04,18,01,43,9.20
2021,04,18,01,44,9.20
2021,04,18,01,45,9.10
2021,04,18,01,46,9.10
2021,04,18,01,47,9.10
2021,04,18,01,48,9.10
2021,04,18,01,49,9.10
2021,04,18,01,50,9.00
2021,04,18,01,51,9.00
2021,04,18,01,52,9.00
2021,04,18,01,53,9.00
2021,04,18,01,54,9.00
2021,04,18,01,55,8.90
2021,04,18,01,56,9.00
2021,04,18,01,57,9.00
2021,04,18,01,58,9.00
2021,04,18,01,59,9.00
2021,04,18,02,00,9.00
2021,04,18,02,01,9.00
2021,04,18,02,02,9.00
2021,04,18,02,03,9.00
2021,04,18,02,04,9.00
2021,04,18,02,05,9.00
2021,04,18,02,06,9.00
2021,04,18,02,07,9.00
2021,04,18,02,08,9.00
2021,04,18,02,09,9.00
2021,04,18,02,10,9.00
2021,04,18,02,11,9.00
2021,04,18,02,12,9.00
2021,04,18,02,13,9.00
2021,04,18,02,14,9.00
2021,04,18,02,15,9.00
2021,04,18,02,16,8.90
2021,04,18,02,17,8.90
2021,04,18,02,18,8.90
2021,04,18,02,19,8.90
2021,04,18,02,20,8.90
2021,04,18,02,21,8.90
2021,04,18,02,22,8.90
2021,04,18,02,23,8.90
2021,04,18,02,24,8.90
2021,04,18,02,25,8.80
2021,04,18,02,26,8.80
2021,04,18,02,27,8.80
2021,04,18,02,28,8.80
2021,04,18,02,29,8.80
2021,04,18,02,30,8.80
2021,04,18,02,31,8.80
2021,04,18,02,32,8.80
2021,04,18,02,33,8.80
2021,04,18,02,34,8.80
2021,04,18,02,35,8.80
2021,04,18,02,36,8.80
2021,04,18,02,37,8.80
2021,04,18,02,38,8.80
2021,04,18,02,39,8.80
2021,04,18,02,40,8.80
2021,04,18,02,41,8.70
2021,04,18,02,42,8.70
2021,04,18,02,43,8.70
2021,04,18,02,44,8.70
2021,04,18,02,45,8.70
2021,04,18,02,46,8.70
2021,04,18,02,47,8.70
2021,04,18,02,48,8.70
2021,04,18,02,49,8.70
2021,04,18,02,50,8.60
2021,04,18,02,51,8.60
2021,04,18,02,52,8.60
2021,04,18,02,53,8.60
2021,04,18,02,54,8.60
2021,04,18,02,55,8.60
2021,04,18,02,56,8.60
2021,04,18,02,57,8.60
2021,04,18,02,58,8.60
2021,04,18,02,59,8.60
2021,04,18,03,00,8.60
2021,04,18,03,01,8.60
2021,04,18,03,02,8.60
2021,04,18,03,03,8.60
2021,04,18,03,04,8.50
2021,04,18,03,05,8.50
2021,04,18,03,06,8.50
2021,04,18,03,07,8.50
2021,04,18,03,08,8.50
2021,04,18,03,09,8.50
2021,04,18,03,10,8.50
2021,04,18,03,11,8.50
2021,04,18,03,12,8.60
2021,04,18,03,13,8.60
2021,04,18,03,14,8.60
2021,04,18,03,15,8.60
2021,04,18,03,16,8.60
2021,04,18,03,17,8.60
2021,04,18,03,18,8.60
2021,04,18,03,19,8.60
2021,04,18,03,20,8.60
2021,04,18,03,21,8.50
2021,04,18,03,22,8.50
2021,04,18,03,23,8.50
2021,04,18,03,24,8.50
2021,04,18,03,25,8.50
2021,04,18,03,26,8.40
2021,04,18,03,27,8.40
2021,04,18,03,28,8.40
2021,04,18,03,29,8.40
2021,04,18,03,30,8.40
2021,04,18,03,31,8.40
2021,04,18,03,32,8.30
2021,04,18,03,33,8.30
2021,04,18,03,34,8.30
2021,04,18,03,35,8.30
2021,04,18,03,36,8.30
2021,04,18,03,37,8.20
2021,04,18,03,38,8.20
2021,04,18,03,39,8.20
2021,04,18,03,40,8.20
2021,04,18,03,41,8.20
2021,04,18,03,42,8.20
2021,04,18,03,43,8.20
2021,04,18,03,44,8.10
2021,04,18,03,45,8.10
2021,04,18,03,46,8.10
2021,04,18,03,47,8.10
2021,04,18,03,48,8.10
2021,04,18,03,49,8.00
2021,04,18,03,50,8.00
2021,04,18,03,51,8.00
2021,04,18,03,52,8.00
2021,04,18,03,53,8.00
2021,04,18,03,54,8.00
2021,04,18,03,55,8.00
2021,04,18,03,56,8.00
2021,04,18,03,57,8.00
2021,04,18,03,58,8.00
2021,04,18,03,59,8.00
2021,04,18,04,00,8.00
2021,04,18,04,01,8.00
2021,04,18,04,02,8.00
2021,04,18,04,03,8.00
2021,04,18,04,04,8.00
2021,04,18,04,05,8.00
2021,04,18,04,06,8.00
2021,04,18,04,07,8.00
2021,04,18,04,08,8.00
2021,04,18,04,09,8.00
2021,04,18,04,10,7.90
2021,04,18,04,11,7.90
2021,04,18,04,12,7.90
2021,04,18,04,13,7.90
2021,04,18,04,14,7.90
2021,04,18,04,15,7.90
2021,04,18,04,16,7.90
2021,04,18,04,17,7.90
2021,04,18,04,18,8.00
2021,04,18,04,19,8.00
2021,04,18,04,20,8.00
2021,04,18,04,21,8.00
2021,04,18,04,22,8.00
2021,04,18,04,23,8.00
2021,04,18,04,24,8.00
2021,04,18,04,25,8.00
2021,04,18,04,26,7.90
2021,04,18,04,27,7.90
2021,04,18,04,28,7.90
2021,04,18,04,29,7.90
2021,04,18,04,30,7.90
2021,04,18,04,31,7.90
2021,04,18,04,32,8.00
2021,04,18,04,33,8.00
2021,04,18,04,34,7.90
2021,04,18,04,35,7.90
2021,04,18,04,36,7.90
2021,04,18,04,37,7.90
2021,04,18,04,38,7.90
2021,04,18,04,39,7.80
2021,04,18,04,40,7.80
2021,04,18,04,41,7.80
2021,04,18,04,42,7.80
2021,04,18,04,43,7.80
2021,04,18,04,44,7.70
2021,04,18,04,45,7.70
2021,04,18,04,46,7.70
2021,04,18,04,47,7.60
2021,04,18,04,48,7.60
2021,04,18,04,49,7.60
2021,04,18,04,50,7.50
2021,04,18,04,51,7.50
2021,04,18,04,52,7.50
2021,04,18,04,53,7.50
2021,04,18,04,54,7.40
2021,04,18,04,55,7.40
2021,04,18,04,56,7.40
2021,04,18,04,57,7.40
2021,04,18,04,58,7.40
2021,04,18,04,59,7.40
2021,04,18,05,00,7.40
2021,04,18,05,01,7.40
2021,04,18,05,02,7.40
2021,04,18,05,03,7.40
2021,04,18,05,04,7.40
2021,04,18,05,05,7.30
2021,04,18,05,06,7.30
2021,04,18,05,07,7.30
2021,04,18,05,08,7.30
2021,04,18,05,09,7.30
2021,04,18,05,10,7.30
2021,04,18,05,11,7.20
2021,04,18,05,12,7.20
2021,04,18,05,13,7.20
2021,04,18,05,14,7.20
2021,04,18,05,15,7.20
2021,04,18,05,16,7.20
2021,04,18,05,17,7.20
2021,04,18,05,18,7.20
2021,04,18,05,19,7.20
2021,04,18,05,20,7.20
2021,04,18,05,21,7.20
2021,04,18,05,22,7.20
2021,04,18,05,23,7.20
2021,04,18,05,24,7.20
2021,04,18,05,25,7.20
2021,04,18,05,26,7.20
2021,04,18,05,27,7.20
2021,04,18,05,28,7.20
2021,04,18,05,29,7.20
2021,04,18,05,30,7.20
2021,04,18,05,31,7.20
2021,04,18,05,32,7.20
2021,04,18,05,33,7.20
2021,04,18,05,34,7.20
2021,04,18,05,35,7.20
2021,04,18,05,36,7.20
2021,04,18,05,37,7.20
2021,04,18,05,38,7.30
2021,04,18,05,39,7.30
2021,04,18,05,40,7.30
2021,04,18,05,41,7.20
2021,04,18,05,42,7.20
2021,04,18,05,43,7.20
2021,04,18,05,44,7.20
2021,04,18,05,45,7.20
2021,04,18,05,46,7.20
2021,04,18,05,47,7.20
2021,04,18,05,48,7.10
2021,04,18,05,49,7.10
2021,04,18,05,50,7.10
2021,04,18,05,51,7.00
2021,04,18,05,52,7.00
2021,04,18,05,53,7.00
2021,04,18,05,54,7.00
2021,04,18,05,55,6.90
2021,04,18,05,56,6.90
2021,04,18,05,57,6.90
2021,04,18,05,58,6.90
2021,04,18,05,59,6.90
2021,04,18,06,00,6.90
2021,04,18,06,01,6.80
2021,04,18,06,02,6.80
2021,04,18,06,03,6.80
2021,04,18,06,04,6.80
2021,04,18,06,05,6.80
2021,04,18,06,06,6.80
2021,04,18,06,07,6.80
2021,04,18,06,08,6.80
2021,04,18,06,09,6.80
2021,04,18,06,10,6.80
2021,04,18,06,11,6.80
2021,04,18,06,12,6.90
2021,04,18,06,13,6.90
2021,04,18,06,14,6.90
2021,04,18,06,15,6.90
2021,04,18,06,16,6.90
2021,04,18,06,17,6.90
2021,04,18,06,18,7.00
2021,04,18,06,19,7.00
2021,04,18,06,20,7.10
2021,04,18,06,21,7.10
2021,04,18,06,22,7.10
2021,04,18,06,23,7.10
2021,04,18,06,24,7.10
2021,04,18,06,25,7.20
2021,04,18,06,26,7.20
2021,04,18,06,27,7.20
2021,04,18,06,28,7.20
2021,04,18,06,29,7.10
2021,04,18,06,30,7.10
2021,04,18,06,31,7.10
2021,04,18,06,32,7.10
2021,04,18,06,33,7.10
2021,04,18,06,34,7.00
2021,04,18,06,35,7.00
2021,04,18,06,36,7.00
2021,04,18,06,37,7.00
2021,04,18,06,38,7.00
2021,04,18,06,39,7.10
2021,04,18,06,40,7.10
2021,04,18,06,41,7.10
2021,04,18,06,42,7.10
2021,04,18,06,43,7.20
2021,04,18,06,44,7.20
2021,04,18,06,45,7.20
2021,04,18,06,46,7.20
2021,04,18,06,47,7.20
2021,04,18,06,48,7.20
2021,04,18,06,49,7.30
2021,04,18,06,50,7.30
2021,04,18,06,51,7.30
2021,04,18,06,52,7.30
2021,04,18,06,53,7.40
2021,04,18,06,54,7.50
2021,04,18,06,55,7.50
2021,04,18,06,56,7.50
2021,04,18,06,57,7.50
2021,04,18,06,58,7.60
2021,04,18,06,59,7.60
2021,04,18,07,00,7.60
2021,04,18,07,01,7.60
2021,04,18,07,02,7.60
2021,04,18,07,03,7.60
2021,04,18,07,04,7.60
2021,04,18,07,05,7.70
2021,04,18,07,06,7.70
2021,04,18,07,07,7.70
2021,04,18,07,08,7.80
2021,04,18,07,09,7.80
2021,04,18,07,10,7.80
2021,04,18,07,11,7.90
2021,04,18,07,12,7.90
2021,04,18,07,13,8.00
2021,04,18,07,14,8.00
2021,04,18,07,15,8.10
2021,04,18,07,16,8.10
2021,04,18,07,17,8.10
2021,04,18,07,18,8.20
2021,04,18,07,19,8.20
2021,04,18,07,20,8.20
2021,04,18,07,21,8.20
2021,04,18,07,22,8.30
2021,04,18,07,23,8.30
2021,04,18,07,24,8.30
2021,04,18,07,25,8.30
2021,04,18,07,26,8.40
2021,04,18,07,27,8.40
2021,04,18,07,28,8.40
2021,04,18,07,29,8.50
2021,04,18,07,30,8.60
2021,04,18,07,31,8.60
2021,04,18,07,32,8.70
2021,04,18,07,33,8.80
2021,04,18,07,34,8.80
2021,04,18,07,35,8.90
2021,04,18,07,36,9.00
2021,04,18,07,37,9.00
2021,04,18,07,38,9.10
2021,04,18,07,39,9.20
2021,04,18,07,40,9.20
2021,04,18,07,41,9.30
2021,04,18,07,42,9.30
2021,04,18,07,43,9.40
2021,04,18,07,44,9.50
2021,04,18,07,45,9.50
2021,04,18,07,46,9.60
2021,04,18,07,47,9.70
2021,04,18,07,48,9.70
2021,04,18,07,49,9.80
2021,04,18,07,50,9.90
2021,04,18,07,51,10.00
2021,04,18,07,52,10.00
2021,04,18,07,53,10.10
2021,04,18,07,54,10.20
2021,04,18,07,55,10.30
2021,04,18,07,56,10.30
2021,04,18,07,57,10.40
2021,04,18,07,58,10.50
2021,04,18,07,59,10.70
2021,04,18,08,00,10.80
2021,04,18,08,01,11.00
2021,04,18,08,02,11.20
2021,04,18,08,03,11.40
2021,04,18,08,04,11.50
2021,04,18,08,05,11.70
2021,04,18,08,06,11.80
2021,04,18,08,07,11.90
2021,04,18,08,08,12.00
2021,04,18,08,09,12.10
2021,04,18,08,10,12.20
2021,04,18,08,11,12.20
2021,04,18,08,12,12.30
2021,04,18,08,13,12.40
2021,04,18,08,14,12.50
2021,04,18,08,15,12.60
2021,04,18,08,16,12.70
2021,04,18,08,17,12.80
2021,04,18,08,18,12.90
2021,04,18,08,19,13.00
2021,04,18,08,20,13.20
2021,04,18,08,21,13.30
2021,04,18,08,22,13.40
2021,04,18,08,23,13.50
2021,04,18,08,24,13.60
2021,04,18,08,25,13.70
2021,04,18,08,26,13.80
2021,04,18,08,27,13.90
2021,04,18,08,28,14.00
2021,04,18,08,29,14.10
2021,04,18,08,30,14.10
2021,04,18,08,31,14.20
2021,04,18,08,32,14.20
2021,04,18,08,33,14.20
2021,04,18,08,34,14.20
2021,04,18,08,35,14.20
2021,04,18,08,36,14.20
2021,04,18,08,37,14.20
2021,04,18,08,38,14.30
2021,04,18,08,39,14.30
2021,04,18,08,40,14.30
2021,04,18,08,41,14.30
2021,04,18,08,42,14.30
2021,04,18,08,43,14.30
2021,04,18,08,44,14.30
2021,04,18,08,45,14.20
2021,04,18,08,46,14.20
2021,04,18,08,47,14.20
2021,04,18,08,48,14.20
2021,04,18,08,49,14.20
2021,04,18,08,50,14.20
2021,04,18,08,51,14.20
2021,04,18,08,52,14.20
2021,04,18,08,53,14.30
2021,04,18,08,54,14.40
2021,04,18,08,55,14.50
2021,04,18,08,56,14.50
2021,04,18,08,57,14.60
2021,04,18,08,58,14.60
2021,04,18,08,59,14.70
2021,04,18,09,00,14.70
2021,04,18,09,01,14.70
2021,04,18,09,02,14.70
2021,04,18,09,03,14.80
2021,04,18,09,04,14.80
2021,04,18,09,05,14.80
2021,04,18,09,06,14.80
2021,04,18,09,07,14.80
2021,04,18,09,08,14.70
2021,04,18,09,09,14.80
2021,04,18,09,10,14.70
2021,04,18,09,11,14.70
2021,04,18,09,12,14.80
2021,04,18,09,13,14.80
2021,04,18,09,14,14.80
2021,04,18,09,15,14.80
2021,04,18,09,16,14.80
2021,04,18,09,17,14.80
2021,04,18,09,18,14.90
2021,04,18,09,19,14.90
2021,04,18,09,20,14.90
2021,04,18,09,21,15.00
2021,04,18,09,22,15.10
2021,04,18,09,23,15.10
2021,04,18,09,24,15.10
2021,04,18,09,25,15.10
2021,04,18,09,26,15.20
2021,04,18,09,27,15.20
2021,04,18,09,28,15.20
2021,04,18,09,29,15.20
2021,04,18,09,30,15.20
2021,04,18,09,31,15.30
2021,04,18,09,32,15.30
2021,04,18,09,33,15.40
2021,04,18,09,34,15.40
2021,04,18,09,35,15.50
2021,04,18,09,36,15.60
2021,04,18,09,37,15.60
2021,04,18,09,38,15.70
2021,04,18,09,39,15.80
2021,04,18,09,40,15.80
2021,04,18,09,41,15.80
2021,04,18,09,42,15.80
2021,04,18,09,43,15.80
2021,04,18,09,44,15.80
2021,04,18,09,45,15.90
2021,04,18,09,46,15.90
2021,04,18,09,47,15.90
2021,04,18,09,48,15.90
2021,04,18,09,49,15.90
2021,04,18,09,50,15.90
2021,04,18,09,51,15.80
2021,04,18,09,52,15.70
2021,04,18,09,53,15.60
2021,04,18,09,54,15.50
2021,04,18,09,55,15.50
2021,04,18,09,56,15.40
2021,04,18,09,57,15.40
2021,04,18,09,58,15.50
2021,04,18,09,59,15.60
2021,04,18,10,00,15.70
2021,04,18,10,01,15.80
2021,04,18,10,02,15.80
2021,04,18,10,03,15.90
2021,04,18,10,04,15.90
2021,04,18,10,05,15.90
2021,04,18,10,06,15.90
2021,04,18,10,07,16.10
2021,04,18,10,08,16.20
2021,04,18,10,09,16.30
2021,04,18,10,10,16.30
2021,04,18,10,11,16.40
2021,04,18,10,12,16.40
2021,04,18,10,13,16.50
2021,04,18,10,14,16.50
2021,04,18,10,15,16.60
2021,04,18,10,16,16.70
2021,04,18,10,17,16.70
2021,04,18,10,18,16.70
2021,04,18,10,19,16.80
2021,04,18,10,20,16.80
2021,04,18,10,21,16.80
2021,04,18,10,22,16.80
2021,04,18,10,23,16.80
2021,04,18,10,24,16.90
2021,04,18,10,25,16.90
2021,04,18,10,26,16.90
2021,04,18,10,27,16.90
2021,04,18,10,28,17.00
2021,04,18,10,29,17.00
2021,04,18,10,30,17.00
2021,04,18,10,31,17.00
2021,04,18,10,32,17.10
2021,04,18,10,33,17.10
2021,04,18,10,34,17.20
2021,04,18,10,35,17.20
2021,04,18,10,36,17.30
2021,04,18,10,37,17.30
2021,04,18,10,38,17.40
2021,04,18,10,39,17.50
2021,04,18,10,40,17.60
2021,04,18,10,41,17.60
2021,04,18,10,42,17.60
2021,04,18,10,43,17.50
2021,04,18,10,44,17.40
2021,04,18,10,45,17.40
2021,04,18,10,46,17.20
2021,04,18,10,47,17.20
2021,04,18,10,48,17.20
2021,04,18,10,49,17.20
2021,04,18,10,50,17.20
2021,04,18,10,51,17.30
2021,04,18,10,52,17.20
2021,04,18,10,53,17.20
2021,04,18,10,54,17.20
2021,04,18,10,55,17.30
2021,04,18,10,56,17.30
2021,04,18,10,57,17.40
2021,04,18,10,58,17.50
2021,04,18,10,59,17.60
2021,04,18,11,00,17.70
2021,04,18,11,01,17.60
2021,04,18,11,02,17.60
2021,04,18,11,03,17.60
2021,04,18,11,04,17.70
2021,04,18,11,05,17.70
2021,04,18,11,06,17.80
2021,04,18,11,07,17.80
2021,04,18,11,08,17.90
2021,04,18,11,09,17.90
2021,04,18,11,10,17.90
2021,04,18,11,11,17.80
2021,04,18,11,12,17.80
2021,04,18,11,13,17.80
2021,04,18,11,14,17.80
2021,04,18,11,15,17.80
2021,04,18,11,16,17.90
2021,04,18,11,17,17.90
2021,04,18,11,18,17.80
2021,04,18,11,19,17.80
2021,04,18,11,20,17.70
2021,04,18,11,21,17.60
2021,04,18,11,22,17.50
2021,04,18,11,23,17.50
2021,04,18,11,24,17.50
2021,04,18,11,25,17.60
2021,04,18,11,26,17.50
2021,04,18,11,27,17.50
2021,04,18,11,28,17.40
2021,04,18,11,29,17.40
2021,04,18,11,30,17.30
2021,04,18,11,31,17.30
2021,04,18,11,32,17.30
2021,04,18,11,33,17.30
2021,04,18,11,34,17.30
2021,04,18,11,35,17.40
2021,04,18,11,36,17.50
2021,04,18,11,37,17.60
2021,04,18,11,38,17.70
2021,04,18,11,39,17.80
2021,04,18,11,40,17.80
2021,04,18,11,41,17.90
2021,04,18,11,42,17.90
2021,04,18,11,43,17.90
2021,04,18,11,44,17.90
2021,04,18,11,45,18.00
2021,04,18,11,46,18.10
2021,04,18,11,47,18.10
2021,04,18,11,48,18.00
2021,04,18,11,49,17.90
2021,04,18,11,50,17.80
2021,04,18,11,51,17.80
2021,04,18,11,52,17.80
2021,04,18,11,53,17.80
2021,04,18,11,54,17.80
2021,04,18,11,55,17.90
2021,04,18,11,56,18.10
2021,04,18,11,57,18.30
2021,04,18,11,58,18.40
2021,04,18,11,59,18.50
2021,04,18,12,00,18.60
2021,04,18,12,01,18.60
2021,04,18,12,02,18.70
2021,04,18,12,03,18.70
2021,04,18,12,04,18.80
2021,04,18,12,05,18.80
2021,04,18,12,06,18.80
2021,04,18,12,07,18.80
2021,04,18,12,08,18.90
2021,04,18,12,09,19.00
2021,04,18,12,10,19.10
2021,04,18,12,11,19.10
2021,04,18,12,12,19.20
2021,04,18,12,13,19.30
2021,04,18,12,14,19.20
2021,04,18,12,15,19.10
2021,04,18,12,16,19.10
2021,04,18,12,17,19.10
2021,04,18,12,18,19.10
2021,04,18,12,19,19.10
2021,04,18,12,20,19.10
2021,04,18,12,21,19.00
2021,04,18,12,22,18.90
2021,04,18,12,23,19.00
2021,04,18,12,24,19.00
2021,04,18,12,25,19.10
2021,04,18,12,26,19.10
2021,04,18,12,27,19.20
2021,04,18,12,28,19.30
2021,04,18,12,29,19.20
2021,04,18,12,30,19.10
2021,04,18,12,31,19.00
2021,04,18,12,32,18.80
2021,04,18,12,33,18.70
2021,04,18,12,34,18.60
2021,04,18,12,35,18.60
2021,04,18,12,36,18.60
2021,04,18,12,37,18.70
2021,04,18,12,38,18.70
2021,04,18,12,39,18.60
2021,04,18,12,40,18.50
2021,04,18,12,41,18.40
2021,04,18,12,42,18.20
2021,04,18,12,43,18.10
2021,04,18,12,44,18.10
2021,04,18,12,45,18.10
2021,04,18,12,46,18.10
2021,04,18,12,47,18.10
2021,04,18,12,48,18.20
2021,04,18,12,49,18.40
2021,04,18,12,50,18.60
2021,04,18,12,51,18.70
2021,04,18,12,52,18.90
2021,04,18,12,53,19.10
2021,04,18,12,54,19.30
2021,04,18,12,55,19.40
2021,04,18,12,56,19.50
2021,04,18,12,57,19.60
2021,04,18,12,58,19.70
2021,04,18,12,59,19.70
2021,04,18,13,00,19.80
2021,04,18,13,01,19.70
2021,04,18,13,02,19.60
2021,04,18,13,03,19.60
2021,04,18,13,04,19.60
2021,04,18,13,05,19.60
2021,04,18,13,06,19.70
2021,04,18,13,07,19.70
2021,04,18,13,08,19.60
2021,04,18,13,09,19.60
2021,04,18,13,10,19.50
2021,04,18,13,11,19.40
2021,04,18,13,12,19.50
2021,04,18,13,13,19.60
2021,04,18,13,14,19.60
2021,04,18,13,15,19.70
2021,04,18,13,16,19.80
2021,04,18,13,17,19.80
2021,04,18,13,18,19.80
2021,04,18,13,19,19.70
2021,04,18,13,20,19.70
2021,04,18,13,21,19.80
2021,04,18,13,22,19.80
2021,04,18,13,23,19.80
2021,04,18,13,24,19.80
2021,04,18,13,25,19.80
2021,04,18,13,26,19.80
2021,04,18,13,27,19.90
2021,04,18,13,28,19.90
2021,04,18,13,29,20.00
2021,04,18,13,30,20.10
2021,04,18,13,31,20.10
2021,04,18,13,32,20.00
2021,04,18,13,33,19.90
2021,04,18,13,34,19.90
2021,04,18,13,35,19.80
2021,04,18,13,36,19.80
2021,04,18,13,37,19.80
2021,04,18,13,38,19.70
2021,04,18,13,39,19.70
2021,04,18,13,40,19.60
2021,04,18,13,41,19.60
2021,04,18,13,42,19.60
2021,04,18,13,43,19.50
2021,04,18,13,44,19.40
2021,04,18,13,45,19.40
2021,04,18,13,46,19.30
2021,04,18,13,47,19.30
2021,04,18,13,48,19.20
2021,04,18,13,49,19.20
2021,04,18,13,50,19.20
2021,04,18,13,51,19.10
2021,04,18,13,52,19.10
2021,04,18,13,53,19.00
2021,04,18,13,54,19.00
2021,04,18,13,55,19.00
2021,04,18,13,56,18.90
2021,04,18,13,57,18.80
2021,04,18,13,58,18.70
2021,04,18,13,59,18.70
2021,04,18,14,00,18.70
2021,04,18,14,01,18.60
2021,04,18,14,02,18.60
2021,04,18,14,03,18.50
2021,04,18,14,04,18.60
2021,04,18,14,05,18.60
2021,04,18,14,06,18.60
2021,04,18,14,07,18.70
2021,04,18,14,08,18.70
2021,04,18,14,09,18.70
2021,04,18,14,10,18.70
2021,04,18,14,11,18.80
2021,04,18,14,12,19.00
2021,04,18,14,13,19.10
2021,04,18,14,14,19.20
2021,04,18,14,15,19.40
2021,04,18,14,16,19.50
2021,04,18,14,17,19.50
2021,04,18,14,18,19.50
2021,04,18,14,19,19.40
2021,04,18,14,20,19.40
2021,04,18,14,21,19.40
2021,04,18,14,22,19.40
2021,04,18,14,23,19.40
2021,04,18,14,24,19.40
2021,04,18,14,25,19.40
2021,04,18,14,26,19.40
2021,04,18,14,27,19.40
2021,04,18,14,28,19.30
2021,04,18,14,29,19.20
2021,04,18,14,30,19.20
2021,04,18,14,31,19.20
2021,04,18,14,32,19.10
2021,04,18,14,33,19.10
2021,04,18,14,34,19.00
2021,04,18,14,35,18.90
2021,04,18,14,36,18.80
2021,04,18,14,37,18.80
2021,04,18,14,38,18.80
2021,04,18,14,39,18.90
2021,04,18,14,40,18.90
2021,04,18,14,41,18.80
2021,04,18,14,42,18.70
2021,04,18,14,43,18.50
2021,04,18,14,44,18.50
2021,04,18,14,45,18.40
2021,04,18,14,46,18.50
2021,04,18,14,47,18.60
2021,04,18,14,48,18.60
2021,04,18,14,49,18.70
2021,04,18,14,50,18.60
2021,04,18,14,51,18.60
2021,04,18,14,52,18.60
2021,04,18,14,53,18.60
2021,04,18,14,54,18.50
2021,04,18,14,55,18.50
2021,04,18,14,56,18.50
2021,04,18,14,57,18.40
2021,04,18,14,58,18.30
2021,04,18,14,59,18.30
2021,04,18,15,00,18.30
2021,04,18,15,01,18.30
2021,04,18,15,02,18.30
2021,04,18,15,03,18.30
2021,04,18,15,04,18.30
2021,04,18,15,05,18.30
2021,04,18,15,06,18.20
2021,04,18,15,07,18.20
2021,04,18,15,08,18.20
2021,04,18,15,09,18.20
2021,04,18,15,10,18.20
2021,04,18,15,11,18.20
2021,04,18,15,12,18.20
2021,04,18,15,13,18.20
2021,04,18,15,14,18.10
2021,04,18,15,15,18.00
2021,04,18,15,16,17.90
2021,04,18,15,17,17.90
2021,04,18,15,18,17.90
2021,04,18,15,19,17.90
2021,04,18,15,20,17.90
2021,04,18,15,21,17.90
2021,04,18,15,22,18.00
2021,04,18,15,23,18.10
2021,04,18,15,24,18.20
2021,04,18,15,25,18.30
2021,04,18,15,26,18.30
2021,04,18,15,27,18.40
2021,04,18,15,28,18.40
2021,04,18,15,29,18.40
2021,04,18,15,30,18.40
2021,04,18,15,31,18.40
2021,04,18,15,32,18.40
2021,04,18,15,33,18.40
2021,04,18,15,34,18.30
2021,04,18,15,35,18.30
2021,04,18,15,36,18.40
2021,04,18,15,37,18.50
2021,04,18,15,38,18.50
2021,04,18,15,39,18.50
2021,04,18,15,40,18.50
2021,04,18,15,41,18.40
2021,04,18,15,42,18.50
2021,04,18,15,43,18.60
2021,04,18,15,44,18.60
2021,04,18,15,45,18.60
2021,04,18,15,46,18.50
2021,04,18,15,47,18.40
2021,04,18,15,48,18.30
2021,04,18,15,49,18.20
2021,04,18,15,50,18.20
2021,04,18,15,51,18.20
2021,04,18,15,52,18.20
2021,04,18,15,53,18.30
2021,04,18,15,54,18.30
2021,04,18,15,55,18.40
2021,04,18,15,56,18.30
2021,04,18,15,57,18.30
2021,04,18,15,58,18.30
2021,04,18,15,59,18.30
2021,04,18,16,00,18.30
2021,04,18,16,01,18.40
2021,04,18,16,02,18.50
2021,04,18,16,03,18.50
2021,04,18,16,04,18.50
2021,04,18,16,05,18.40
2021,04,18,16,06,18.30
2021,04,18,16,07,18.20
2021,04,18,16,08,18.10
2021,04,18,16,09,18.00
2021,04,18,16,10,17.90
2021,04,18,16,11,17.80
2021,04,18,16,12,17.80
2021,04,18,16,13,17.90
2021,04,18,16,14,17.90
2021,04,18,16,15,18.00
2021,04,18,16,16,18.10
2021,04,18,16,17,18.10
2021,04,18,16,18,18.10
2021,04,18,16,19,18.10
2021,04,18,16,20,18.00
2021,04,18,16,21,18.00
2021,04,18,16,22,17.90
2021,04,18,16,23,17.80
2021,04,18,16,24,17.80
2021,04,18,16,25,17.80
2021,04,18,16,26,17.80
2021,04,18,16,27,17.90
2021,04,18,16,28,17.80
2021,04,18,16,29,17.80
2021,04,18,16,30,17.70
2021,04,18,16,31,17.70
2021,04,18,16,32,17.70
2021,04,18,16,33,17.80
2021,04,18,16,34,17.90
2021,04,18,16,35,18.00
2021,04,18,16,36,18.10
2021,04,18,16,37,18.00
2021,04,18,16,38,18.00
2021,04,18,16,39,17.90
2021,04,18,16,40,17.90
2021,04,18,16,41,17.90
2021,04,18,16,42,17.90
2021,04,18,16,43,17.90
2021,04,18,16,44,17.90
2021,04,18,16,45,17.90
2021,04,18,16,46,17.90
2021,04,18,16,47,17.90
2021,04,18,16,48,17.90
2021,04,18,16,49,17.90
2021,04,18,16,50,17.90
2021,04,18,16,51,17.90
2021,04,18,16,52,17.90
2021,04,18,16,53,17.80
2021,04,18,16,54,17.80
2021,04,18,16,55,17.90
2021,04,18,16,56,17.90
2021,04,18,16,57,17.90
2021,04,18,16,58,17.90
2021,04,18,16,59,17.90
2021,04,18,17,00,18.00
2021,04,18,17,01,18.00
2021,04,18,17,02,18.00
2021,04,18,17,03,18.10
2021,04,18,17,04,18.10
2021,04,18,17,05,18.20
2021,04,18,17,06,18.20
2021,04,18,17,07,18.20
2021,04,18,17,08,18.30
2021,04,18,17,09,18.30
2021,04,18,17,10,18.40
2021,04,18,17,11,18.40
2021,04,18,17,12,18.50
2021,04,18,17,13,18.50
2021,04,18,17,14,18.60
2021,04,18,17,15,18.70
2021,04,18,17,16,18.80
2021,04,18,17,17,18.90
2021,04,18,17,18,19.00
2021,04,18,17,19,19.00
2021,04,18,17,20,19.00
2021,04,18,17,21,18.90
2021,04,18,17,22,18.90
2021,04,18,17,23,18.80
2021,04,18,17,24,18.70
2021,04,18,17,25,18.60
2021,04,18,17,26,18.50
2021,04,18,17,27,18.40
2021,04,18,17,28,18.30
2021,04,18,17,29,18.20
2021,04,18,17,30,18.20
2021,04,18,17,31,18.10
2021,04,18,17,32,18.10
2021,04,18,17,33,18.10
2021,04,18,17,34,18.10
2021,04,18,17,35,18.20
2021,04,18,17,36,18.10